Location: Ajisawe
(8.4333°N, 4.3833°E)
Time: 14:12:44
(UTC+00:00)

Courier 1B Rocket - Pass Details

Date: 27 April 2021
Orbit: 920 x 1202 km, 28.2° (Epoch: 07 May)

Event Time Altitude Azimuth Distance (km) Brightness Sun altitude
Rises 17:25:18 0° 303° (WNW) 3,547 9.6 5.6°
Reaches altitude 10° 17:29:48 10° 332° (NNW) 2,628 8.0 4.5°
Maximum altitude 17:32:14 12° 356° (N) 2,485 7.4 3.9°
Drops below altitude 10° 17:34:43 10° 19° (NNE) 2,673 7.3 3.3°
Sets 17:39:23 0° 48° (NE) 3,681 7.7 2.2°
